STARLINK-5199 (54201 NORAD) Tracking and Keplerian Element Data

This shows tracking and keplerian element data for the satellite.

Feedback or suggestion? Click here.




ElementValue
Catalog54201
NameSTARLINK-5199
Epoch Orbit402
Epoch Day324.91667824
Epoch Year2022
RAAN25.7262
Inclination53.2178
Eccentricity0.0003125
Argument of Perigee17.4849
Mean Anonmoly291.1418
Mean Motion15.73233451
Decay Rate-0.00067584
L11 54201U 22141AW 22324.91667824 -.00067584 00000+0 -48014-3 0 9999
L22 54201 53.2178 25.7262 0003125 17.4849 291.1418 15.73233451 4024



Live tracking and technical data element details for STARLINK-5199 (NORAD 54201). STARLINK-5199 can be tracked NOW for your location showing map with azimuth and elevation plus other details from your city location.







IsCatalogInMostPopularTable: catalog: 54201, numindb: 9
Update: records affected: 1



GetName: 54201 STARLINK-5199

Hit Count: updated at: Mon, 28 Nov 2022 21:11:41 GMT